Tracking 20093 objects as of 15-Dec-2019
HD Live streaming from Space Station
objects crossing your sky now

FENGYUN 1C DEB

Track FENGYUN 1C DEB now!
10-day predictions


NORAD ID: 37926
Int'l Code: 1999-025EPB
Perigee: 816.0 km
Apogee: 905.1 km
Inclination: 98.9 °
Period: 102.0 minutes
Semi major axis: 7231 km
RCS: 0.02 m2 (small)
Launch date: May 10, 1999
Source: People's Republic of China (PRC)
Launch site: Taiyaun Space Center, China (TSC)

Note: This is SATELLITE DEBRIS
aabbcc
Your satellite tracking list
Your tracking list is empty




NASA's NSSDC Master Catalog

Two Line Element Set (TLE):
1 37926U 99025EPB 19348.39261753  .00000488  00000-0  28715-3 0  9999
2 37926  98.8921  45.7235 0061629 349.3110  68.5058 14.11734493435929
Source of the keplerian elements: AFSPC